Retour au catalogue

STARLINK-35819

ActifCommunicationsVLEO
NORAD 66285·PAYLOAD·🇺🇸 United States

Lancé Oct 31, 2025 depuis Vandenberg Space Force Base

Loading…

Prochains Passages (prochaines 24 heures)

TLE

FraisSource: CelesTrak SupGP

Époque: Sep 14, 2026, 23:08 UTC

1 66285C 25247W   26257.96437500 -.00006462  00000+0 -19121-3 0  2576
2 66285  53.1587  29.6273 0000930  70.3517 153.4566 15.34347287    17

Suivez STARLINK-35819 en temps réel avec AllMySat

Download on the App Store